Time,TemperatureF,DewpointF,PressureIn,WindDirection,WindDirectionDegrees,WindSpeedMPH,WindSpeedGustMPH,Humidity,HourlyPrecipIn,Conditions,Clouds,dailyrainin,SoftwareType,DateUTC
2013-12-16 00:03:00,25.1,22.6,30.18,WSW,240,2.0,2.0,90,0.00,,,0.00,Wunderground v.1.15,2013-12-16 05:03:00,
2013-12-16 00:09:00,25.1,22.6,30.18,WSW,240,2.0,2.0,90,0.00,,,0.00,Wunderground v.1.15,2013-12-16 05:09:00,
2013-12-16 00:19:00,25.1,22.6,30.18,WSW,240,2.0,3.0,90,0.00,,,0.00,Wunderground v.1.15,2013-12-16 05:19:00,
2013-12-16 00:29:00,25.0,22.7,30.17,WSW,240,2.0,2.0,91,0.00,,,0.00,Wunderground v.1.15,2013-12-16 05:29:00,
2013-12-16 00:39:00,25.1,22.8,30.17,WSW,240,2.0,4.0,91,0.00,,,0.00,Wunderground v.1.15,2013-12-16 05:39:00,
2013-12-16 00:48:00,25.1,22.8,30.17,WSW,240,1.0,1.0,91,0.00,,,0.00,Wunderground v.1.15,2013-12-16 05:48:00,
2013-12-16 00:53:00,25.1,22.8,30.16,WSW,240,1.0,5.0,91,0.00,,,0.00,Wunderground v.1.15,2013-12-16 05:53:00,
2013-12-16 00:58:00,25.1,22.8,30.17,WSW,240,1.0,2.0,91,0.00,,,0.00,Wunderground v.1.15,2013-12-16 05:58:00,
2013-12-16 01:08:00,25.2,22.9,30.17,WSW,240,2.0,2.0,91,0.00,,,0.00,Wunderground v.1.15,2013-12-16 06:08:00,
2013-12-16 01:18:00,25.2,22.9,30.17,WSW,240,1.0,1.0,91,0.00,,,0.00,Wunderground v.1.15,2013-12-16 06:18:00,
2013-12-16 01:23:00,25.3,23.0,30.17,WSW,240,1.0,1.0,91,0.00,,,0.00,Wunderground v.1.15,2013-12-16 06:23:00,
2013-12-16 01:28:00,25.3,23.0,30.17,WSW,240,2.0,2.0,91,0.00,,,0.00,Wunderground v.1.15,2013-12-16 06:28:00,
2013-12-16 01:38:00,25.3,23.3,30.17,WSW,240,2.0,2.0,92,0.00,,,0.00,Wunderground v.1.15,2013-12-16 06:38:00,
2013-12-16 01:48:00,25.3,23.3,30.17,WSW,240,2.0,2.0,92,0.00,,,0.00,Wunderground v.1.15,2013-12-16 06:48:00,
2013-12-16 01:59:00,25.3,23.3,30.17,WSW,240,1.0,2.0,92,0.00,,,0.00,Wunderground v.1.15,2013-12-16 06:59:00,
2013-12-16 02:08:00,25.3,23.3,30.17,WSW,240,1.0,1.0,92,0.00,,,0.00,Wunderground v.1.15,2013-12-16 07:08:00,
2013-12-16 02:18:00,25.3,23.3,30.17,WSW,240,1.0,2.0,92,0.00,,,0.00,Wunderground v.1.15,2013-12-16 07:18:00,
2013-12-16 02:28:00,25.4,23.7,30.17,WSW,240,1.0,2.0,93,0.00,,,0.00,Wunderground v.1.15,2013-12-16 07:28:00,
2013-12-16 02:38:00,25.4,23.7,30.17,WSW,240,0.0,2.0,93,0.00,,,0.00,Wunderground v.1.15,2013-12-16 07:38:00,
2013-12-16 02:48:00,25.4,23.7,30.17,WSW,240,1.0,1.0,93,0.00,,,0.00,Wunderground v.1.15,2013-12-16 07:48:00,
2013-12-16 02:58:00,25.4,23.7,30.17,WSW,240,1.0,3.0,93,0.00,,,0.00,Wunderground v.1.15,2013-12-16 07:58:00,
2013-12-16 03:08:00,25.5,23.8,30.17,WSW,240,1.0,1.0,93,0.00,,,0.00,Wunderground v.1.15,2013-12-16 08:08:00,
2013-12-16 03:18:00,25.5,23.8,30.17,WSW,240,0.0,0.0,93,0.00,,,0.00,Wunderground v.1.15,2013-12-16 08:18:00,
2013-12-16 03:29:00,25.6,23.9,30.17,WSW,240,0.0,0.0,93,0.00,,,0.00,Wunderground v.1.15,2013-12-16 08:29:00,
2013-12-16 03:39:00,25.6,23.9,30.17,WSW,240,0.0,0.0,93,0.00,,,0.00,Wunderground v.1.15,2013-12-16 08:39:00,
2013-12-16 03:48:00,25.6,23.9,30.17,WSW,240,0.0,0.0,93,0.00,,,0.00,Wunderground v.1.15,2013-12-16 08:48:00,
2013-12-16 03:58:00,25.6,23.9,30.16,WSW,240,0.0,0.0,93,0.00,,,0.00,Wunderground v.1.15,2013-12-16 08:58:00,
2013-12-16 04:08:00,25.7,24.0,30.16,WSW,240,0.0,0.0,93,0.00,,,0.00,Wunderground v.1.15,2013-12-16 09:08:00,
2013-12-16 04:19:00,25.7,24.0,30.16,WSW,240,0.0,0.0,93,0.00,,,0.00,Wunderground v.1.15,2013-12-16 09:19:00,
2013-12-16 04:29:00,25.7,24.0,30.16,WSW,240,0.0,0.0,93,0.00,,,0.00,Wunderground v.1.15,2013-12-16 09:29:00,
2013-12-16 04:38:00,25.7,24.0,30.15,WSW,240,0.0,0.0,93,0.00,,,0.00,Wunderground v.1.15,2013-12-16 09:38:00,
2013-12-16 04:48:00,25.8,24.1,30.16,WSW,240,0.0,0.0,93,0.00,,,0.00,Wunderground v.1.15,2013-12-16 09:48:00,
2013-12-16 04:58:00,25.8,24.1,30.15,WSW,240,0.0,0.0,93,0.00,,,0.00,Wunderground v.1.15,2013-12-16 09:58:00,
2013-12-16 05:03:00,25.8,24.1,30.15,WSW,240,0.0,0.0,93,0.00,,,0.00,Wunderground v.1.15,2013-12-16 10:03:00,
2013-12-16 05:08:00,25.8,24.1,30.15,WSW,240,0.0,0.0,93,0.00,,,0.00,Wunderground v.1.15,2013-12-16 10:08:00,
2013-12-16 05:18:00,25.8,24.1,30.14,WSW,240,0.0,1.0,93,0.00,,,0.00,Wunderground v.1.15,2013-12-16 10:18:00,
2013-12-16 05:28:00,25.8,24.1,30.14,WSW,240,1.0,2.0,93,0.00,,,0.00,Wunderground v.1.15,2013-12-16 10:28:00,
2013-12-16 05:43:00,25.9,24.2,30.15,WSW,240,0.0,0.0,93,0.00,,,0.00,Wunderground v.1.15,2013-12-16 10:43:00,
2013-12-16 05:48:00,25.9,24.2,30.15,WSW,240,0.0,0.0,93,0.00,,,0.00,Wunderground v.1.15,2013-12-16 10:48:00,
2013-12-16 05:59:00,25.9,24.2,30.14,WSW,240,0.0,1.0,93,0.00,,,0.00,Wunderground v.1.15,2013-12-16 10:59:00,
2013-12-16 06:09:00,25.9,24.2,30.15,WSW,240,0.0,0.0,93,0.00,,,0.00,Wunderground v.1.15,2013-12-16 11:09:00,
2013-12-16 06:18:00,25.9,24.2,30.15,WSW,240,0.0,0.0,93,0.00,,,0.00,Wunderground v.1.15,2013-12-16 11:18:00,
2013-12-16 06:28:00,25.9,24.2,30.15,WSW,240,0.0,0.0,93,0.00,,,0.00,Wunderground v.1.15,2013-12-16 11:28:00,
2013-12-16 06:38:00,26.0,24.3,30.15,WSW,240,0.0,0.0,93,0.00,,,0.00,Wunderground v.1.15,2013-12-16 11:38:00,
2013-12-16 06:48:00,26.0,24.5,30.15,WSW,240,0.0,0.0,94,0.00,,,0.00,Wunderground v.1.15,2013-12-16 11:48:00,
2013-12-16 06:59:00,26.0,24.5,30.16,WSW,240,0.0,0.0,94,0.00,,,0.00,Wunderground v.1.15,2013-12-16 11:59:00,
2013-12-16 07:09:00,26.0,24.5,30.16,WSW,240,0.0,0.0,94,0.00,,,0.00,Wunderground v.1.15,2013-12-16 12:09:00,
2013-12-16 07:23:00,26.1,24.6,30.16,WSW,240,0.0,0.0,94,0.00,,,0.00,Wunderground v.1.15,2013-12-16 12:23:00,
2013-12-16 07:33:00,26.1,24.6,30.16,WSW,240,0.0,0.0,94,0.00,,,0.00,Wunderground v.1.15,2013-12-16 12:33:00,
2013-12-16 07:38:00,26.2,24.7,30.16,WSW,240,0.0,0.0,94,0.00,,,0.00,Wunderground v.1.15,2013-12-16 12:38:00,
2013-12-16 07:48:00,26.2,24.7,30.17,WSW,240,0.0,0.0,94,0.00,,,0.00,Wunderground v.1.15,2013-12-16 12:48:00,
2013-12-16 07:59:00,26.2,24.7,30.16,WSW,240,0.0,0.0,94,0.00,,,0.00,Wunderground v.1.15,2013-12-16 12:59:00,
2013-12-16 08:08:00,26.2,24.7,30.17,WSW,240,0.0,0.0,94,0.00,,,0.00,Wunderground v.1.15,2013-12-16 13:08:00,
2013-12-16 08:18:00,26.2,24.7,30.17,WSW,240,0.0,0.0,94,0.00,,,0.00,Wunderground v.1.15,2013-12-16 13:18:00,
2013-12-16 08:29:00,26.2,24.7,30.16,WSW,240,0.0,0.0,94,0.00,,,0.00,Wunderground v.1.15,2013-12-16 13:29:00,
2013-12-16 08:38:00,26.2,24.7,30.16,WSW,240,0.0,0.0,94,0.00,,,0.00,Wunderground v.1.15,2013-12-16 13:38:00,
2013-12-16 08:48:00,26.3,24.8,30.17,WSW,240,0.0,0.0,94,0.00,,,0.00,Wunderground v.1.15,2013-12-16 13:48:00,
2013-12-16 08:58:00,26.3,24.8,30.17,WSW,240,0.0,0.0,94,0.00,,,0.00,Wunderground v.1.15,2013-12-16 13:58:00,
2013-12-16 09:09:00,26.4,24.9,30.17,WSW,240,0.0,0.0,94,0.00,,,0.00,Wunderground v.1.15,2013-12-16 14:09:00,
2013-12-16 09:18:00,26.5,25.0,30.17,WSW,240,0.0,2.0,94,0.00,,,0.00,Wunderground v.1.15,2013-12-16 14:18:00,
2013-12-16 09:29:00,26.6,25.1,30.17,SSE,148,2.0,2.0,94,0.00,,,0.00,Wunderground v.1.15,2013-12-16 14:29:00,
2013-12-16 09:39:00,26.6,25.1,30.17,ESE,123,2.0,2.0,94,0.00,,,0.00,Wunderground v.1.15,2013-12-16 14:39:00,
2013-12-16 09:49:00,26.7,25.2,30.17,ESE,123,2.0,2.0,94,0.00,,,0.00,Wunderground v.1.15,2013-12-16 14:49:00,
2013-12-16 09:58:00,26.9,25.4,30.17,ESE,123,1.0,1.0,94,0.00,,,0.00,Wunderground v.1.15,2013-12-16 14:58:00,
2013-12-16 10:09:00,27.1,25.6,30.17,ESE,123,0.0,1.0,94,0.00,,,0.00,Wunderground v.1.15,2013-12-16 15:09:00,
2013-12-16 10:19:00,27.4,25.9,30.17,ESE,109,0.0,2.0,94,0.00,,,0.00,Wunderground v.1.15,2013-12-16 15:19:00,
2013-12-16 10:29:00,27.5,26.0,30.17,ESE,109,1.0,2.0,94,0.00,,,0.00,Wunderground v.1.15,2013-12-16 15:29:00,
2013-12-16 10:38:00,27.5,26.0,30.17,ESE,109,1.0,2.0,94,0.00,,,0.00,Wunderground v.1.15,2013-12-16 15:38:00,
2013-12-16 10:48:00,27.6,26.1,30.17,ESE,109,1.0,1.0,94,0.00,,,0.00,Wunderground v.1.15,2013-12-16 15:48:00,
2013-12-16 10:58:00,28.0,26.5,30.17,ESE,107,0.0,2.0,94,0.00,,,0.00,Wunderground v.1.15,2013-12-16 15:58:00,
2013-12-16 11:08:00,28.2,26.7,30.17,ESE,107,1.0,2.0,94,0.00,,,0.00,Wunderground v.1.15,2013-12-16 16:08:00,
2013-12-16 11:18:00,28.3,26.8,30.17,ESE,107,1.0,1.0,94,0.00,,,0.00,Wunderground v.1.15,2013-12-16 16:18:00,
2013-12-16 11:28:00,28.4,26.9,30.16,ESE,107,1.0,2.0,94,0.00,,,0.00,Wunderground v.1.15,2013-12-16 16:28:00,
2013-12-16 11:38:00,28.6,27.1,30.16,ESE,107,1.0,1.0,94,0.00,,,0.00,Wunderground v.1.15,2013-12-16 16:38:00,
2013-12-16 11:48:00,28.9,27.1,30.15,ESE,107,1.0,1.0,93,0.00,,,0.00,Wunderground v.1.15,2013-12-16 16:48:00,
2013-12-16 11:58:00,29.3,27.5,30.15,ESE,107,1.0,2.0,93,0.00,,,0.00,Wunderground v.1.15,2013-12-16 16:58:00,
2013-12-16 12:03:00,29.3,27.5,30.15,ESE,107,1.0,2.0,93,0.00,,,0.00,Wunderground v.1.15,2013-12-16 17:03:00,
2013-12-16 12:08:00,29.5,27.7,30.15,ESE,107,0.0,1.0,93,0.00,,,0.00,Wunderground v.1.15,2013-12-16 17:08:00,
2013-12-16 12:19:00,29.6,27.8,30.14,East,101,1.0,1.0,93,0.00,,,0.00,Wunderground v.1.15,2013-12-16 17:19:00,
2013-12-16 12:29:00,29.5,27.5,30.14,East,101,1.0,2.0,92,0.00,,,0.00,Wunderground v.1.15,2013-12-16 17:29:00,
2013-12-16 12:38:00,29.4,27.4,30.13,East,97,2.0,2.0,92,0.00,,,0.01,Wunderground v.1.15,2013-12-16 17:38:00,
2013-12-16 12:49:00,29.4,27.4,30.12,East,97,1.0,2.0,92,0.00,,,0.01,Wunderground v.1.15,2013-12-16 17:49:00,
2013-12-16 12:59:00,29.3,27.3,30.12,East,80,1.0,1.0,92,0.00,,,0.01,Wunderground v.1.15,2013-12-16 17:59:00,
2013-12-16 13:09:00,29.4,27.1,30.11,East,81,0.0,3.0,91,0.00,,,0.01,Wunderground v.1.15,2013-12-16 18:09:00,
2013-12-16 13:19:00,29.4,27.4,30.11,East,81,1.0,1.0,92,0.00,,,0.01,Wunderground v.1.15,2013-12-16 18:19:00,
2013-12-16 13:28:00,29.3,27.3,30.11,East,81,2.0,3.0,92,0.00,,,0.01,Wunderground v.1.15,2013-12-16 18:28:00,
2013-12-16 13:38:00,29.1,27.1,30.10,East,81,2.0,3.0,92,0.00,,,0.02,Wunderground v.1.15,2013-12-16 18:38:00,
2013-12-16 13:49:00,29.0,27.0,30.10,East,81,2.0,2.0,92,0.00,,,0.02,Wunderground v.1.15,2013-12-16 18:49:00,
2013-12-16 13:59:00,29.2,27.2,30.10,East,81,1.0,1.0,92,0.00,,,0.02,Wunderground v.1.15,2013-12-16 18:59:00,
2013-12-16 14:08:00,29.3,27.3,30.09,East,82,1.0,5.0,92,0.00,,,0.02,Wunderground v.1.15,2013-12-16 19:08:00,
2013-12-16 14:18:00,29.0,27.0,30.09,East,82,2.0,5.0,92,0.00,,,0.03,Wunderground v.1.15,2013-12-16 19:18:00,
2013-12-16 14:29:00,28.9,26.9,30.08,East,84,4.0,4.0,92,0.00,,,0.03,Wunderground v.1.15,2013-12-16 19:29:00,
2013-12-16 14:39:00,29.0,27.0,30.09,East,84,2.0,3.0,92,0.00,,,0.03,Wunderground v.1.15,2013-12-16 19:39:00,
2013-12-16 14:48:00,29.3,27.3,30.09,East,84,1.0,1.0,92,0.00,,,0.04,Wunderground v.1.15,2013-12-16 19:48:00,
2013-12-16 14:58:00,29.6,27.6,30.09,East,84,0.0,0.0,92,0.00,,,0.04,Wunderground v.1.15,2013-12-16 19:58:00,
2013-12-16 15:08:00,29.6,27.6,30.10,East,84,1.0,2.0,92,0.00,,,0.04,Wunderground v.1.15,2013-12-16 20:08:00,
2013-12-16 15:18:00,29.5,27.5,30.10,East,84,1.0,2.0,92,0.00,,,0.04,Wunderground v.1.15,2013-12-16 20:18:00,
2013-12-16 15:28:00,29.5,27.5,30.11,East,84,1.0,2.0,92,0.00,,,0.04,Wunderground v.1.15,2013-12-16 20:28:00,
2013-12-16 15:39:00,29.3,27.0,30.10,East,84,1.0,1.0,91,0.00,,,0.04,Wunderground v.1.15,2013-12-16 20:39:00,
2013-12-16 15:48:00,29.1,26.8,30.11,East,84,1.0,1.0,91,0.00,,,0.04,Wunderground v.1.15,2013-12-16 20:48:00,
2013-12-16 15:58:00,29.1,27.1,30.11,East,84,1.0,1.0,92,0.00,,,0.04,Wunderground v.1.15,2013-12-16 20:58:00,
2013-12-16 16:03:00,29.1,27.1,30.11,East,83,1.0,1.0,92,0.00,,,0.04,Wunderground v.1.15,2013-12-16 21:03:00,
2013-12-16 16:08:00,29.1,27.1,30.11,East,83,1.0,1.0,92,0.00,,,0.04,Wunderground v.1.15,2013-12-16 21:08:00,
2013-12-16 16:19:00,29.0,27.0,30.11,ENE,78,0.0,0.0,92,0.00,,,0.04,Wunderground v.1.15,2013-12-16 21:19:00,
2013-12-16 16:28:00,28.9,26.9,30.11,East,79,2.0,2.0,92,0.00,,,0.04,Wunderground v.1.15,2013-12-16 21:28:00,
2013-12-16 16:38:00,28.8,26.8,30.11,East,79,3.0,3.0,92,0.00,,,0.04,Wunderground v.1.15,2013-12-16 21:38:00,
2013-12-16 16:49:00,28.8,26.8,30.10,East,79,3.0,3.0,92,0.00,,,0.04,Wunderground v.1.15,2013-12-16 21:49:00,
2013-12-16 16:58:00,28.8,26.8,30.10,East,87,4.0,4.0,92,0.00,,,0.04,Wunderground v.1.15,2013-12-16 21:58:00,
2013-12-16 17:09:00,28.9,26.9,30.10,East,87,3.0,3.0,92,0.00,,,0.04,Wunderground v.1.15,2013-12-16 22:09:00,
2013-12-16 17:19:00,29.0,27.2,30.11,East,87,2.0,2.0,93,0.00,,,0.04,Wunderground v.1.15,2013-12-16 22:19:00,
2013-12-16 17:28:00,29.1,27.3,30.11,East,87,0.0,0.0,93,0.00,,,0.04,Wunderground v.1.15,2013-12-16 22:28:00,
2013-12-16 17:38:00,29.1,27.3,30.12,East,87,0.0,0.0,93,0.00,,,0.04,Wunderground v.1.15,2013-12-16 22:38:00,
2013-12-16 17:48:00,29.2,27.4,30.12,East,87,0.0,0.0,93,0.00,,,0.04,Wunderground v.1.15,2013-12-16 22:48:00,
2013-12-16 17:59:00,29.2,27.4,30.11,East,87,1.0,3.0,93,0.00,,,0.04,Wunderground v.1.15,2013-12-16 22:59:00,
2013-12-16 18:08:00,29.2,27.4,30.10,East,87,2.0,3.0,93,0.00,,,0.04,Wunderground v.1.15,2013-12-16 23:08:00,
2013-12-16 18:19:00,29.1,27.3,30.09,East,88,4.0,5.0,93,0.00,,,0.04,Wunderground v.1.15,2013-12-16 23:19:00,
2013-12-16 18:29:00,29.0,27.2,30.09,East,89,5.0,5.0,93,0.00,,,0.04,Wunderground v.1.15,2013-12-16 23:29:00,
2013-12-16 18:39:00,29.0,27.2,30.10,East,89,3.0,3.0,93,0.00,,,0.04,Wunderground v.1.15,2013-12-16 23:39:00,
2013-12-16 18:48:00,29.1,27.3,30.10,East,89,2.0,2.0,93,0.00,,,0.04,Wunderground v.1.15,2013-12-16 23:48:00,
2013-12-16 18:59:00,29.0,27.2,30.10,East,89,2.0,2.0,93,0.00,,,0.04,Wunderground v.1.15,2013-12-16 23:59:00,
2013-12-16 19:08:00,29.0,27.2,30.10,East,89,2.0,2.0,93,0.00,,,0.04,Wunderground v.1.15,2013-12-17 00:08:00,
2013-12-16 19:18:00,29.0,27.2,30.10,East,89,2.0,2.0,93,0.00,,,0.04,Wunderground v.1.15,2013-12-17 00:18:00,
2013-12-16 19:29:00,29.1,27.3,30.10,East,89,0.0,0.0,93,0.00,,,0.04,Wunderground v.1.15,2013-12-17 00:29:00,
2013-12-16 19:38:00,29.1,27.3,30.10,East,89,0.0,1.0,93,0.00,,,0.04,Wunderground v.1.15,2013-12-17 00:38:00,
2013-12-16 19:48:00,29.0,27.2,30.10,East,89,1.0,1.0,93,0.00,,,0.04,Wunderground v.1.15,2013-12-17 00:48:00,
2013-12-16 19:59:00,28.7,26.9,30.10,East,89,2.0,2.0,93,0.00,,,0.04,Wunderground v.1.15,2013-12-17 00:59:00,
2013-12-16 20:13:00,28.5,26.7,30.09,East,89,0.0,0.0,93,0.00,,,0.04,Wunderground v.1.15,2013-12-17 01:13:00,
2013-12-16 20:19:00,28.4,26.6,30.09,East,89,0.0,0.0,93,0.00,,,0.04,Wunderground v.1.15,2013-12-17 01:19:00,
2013-12-16 20:29:00,28.0,26.2,30.09,East,89,1.0,1.0,93,0.00,,,0.04,Wunderground v.1.15,2013-12-17 01:29:00,
2013-12-16 20:39:00,27.4,25.6,30.08,East,89,0.0,1.0,93,0.00,,,0.04,Wunderground v.1.15,2013-12-17 01:39:00,
2013-12-16 20:48:00,26.8,25.0,30.08,East,89,0.0,0.0,93,0.00,,,0.04,Wunderground v.1.15,2013-12-17 01:48:00,
2013-12-16 20:58:00,26.3,24.6,30.07,East,89,0.0,0.0,93,0.00,,,0.04,Wunderground v.1.15,2013-12-17 01:58:00,
2013-12-16 21:08:00,26.5,24.8,30.06,East,89,0.0,0.0,93,0.00,,,0.04,Wunderground v.1.15,2013-12-17 02:08:00,
2013-12-16 21:19:00,26.8,25.3,30.06,East,89,0.0,0.0,94,0.00,,,0.04,Wunderground v.1.15,2013-12-17 02:19:00,
2013-12-16 21:28:00,26.9,25.4,30.07,East,89,0.0,0.0,94,0.00,,,0.04,Wunderground v.1.15,2013-12-17 02:28:00,
2013-12-16 21:39:00,26.7,25.2,30.07,East,89,0.0,0.0,94,0.00,,,0.04,Wunderground v.1.15,2013-12-17 02:39:00,
2013-12-16 21:53:00,26.4,24.9,30.08,East,89,0.0,0.0,94,0.00,,,0.04,Wunderground v.1.15,2013-12-17 02:53:00,
2013-12-16 21:59:00,26.5,25.0,30.08,East,89,0.0,0.0,94,0.00,,,0.04,Wunderground v.1.15,2013-12-17 02:59:00,
2013-12-16 22:08:00,26.6,25.1,30.07,East,89,0.0,0.0,94,0.00,,,0.04,Wunderground v.1.15,2013-12-17 03:08:00,
2013-12-16 22:18:00,26.7,25.2,30.07,East,89,0.0,0.0,94,0.00,,,0.04,Wunderground v.1.15,2013-12-17 03:18:00,
2013-12-16 22:28:00,27.8,26.3,30.06,ESE,112,0.0,2.0,94,0.00,,,0.04,Wunderground v.1.15,2013-12-17 03:28:00,
2013-12-16 22:39:00,29.2,27.9,30.07,SSW,201,2.0,2.0,95,0.00,,,0.04,Wunderground v.1.15,2013-12-17 03:39:00,
2013-12-16 22:49:00,30.2,28.9,30.07,SSW,201,2.0,2.0,95,0.00,,,0.04,Wunderground v.1.15,2013-12-17 03:49:00,
2013-12-16 22:59:00,31.0,29.7,30.07,WSW,248,2.0,3.0,95,0.00,,,0.04,Wunderground v.1.15,2013-12-17 03:59:00,
2013-12-16 23:09:00,31.4,30.1,30.06,WSW,248,2.0,2.0,95,0.00,,,0.04,Wunderground v.1.15,2013-12-17 04:09:00,
2013-12-16 23:18:00,32.0,30.5,30.06,WSW,251,3.0,3.0,94,0.00,,,0.04,Wunderground v.1.15,2013-12-17 04:18:00,
2013-12-16 23:28:00,32.8,31.3,30.06,WSW,257,4.0,4.0,94,0.00,,,0.04,Wunderground v.1.15,2013-12-17 04:28:00,
2013-12-16 23:39:00,33.4,31.6,30.06,WSW,257,4.0,4.0,93,0.00,,,0.04,Wunderground v.1.15,2013-12-17 04:39:00,
2013-12-16 23:49:00,33.9,31.6,30.06,WSW,249,4.0,5.0,91,0.00,,,0.04,Wunderground v.1.15,2013-12-17 04:49:00,
2013-12-16 23:59:00,34.4,31.8,30.05,WSW,256,5.0,6.0,90,0.00,,,0.04,Wunderground v.1.15,2013-12-17 04:59:00,